Tacoma, WA

10:17 AM PDT on April 24, 2017 (GMT -0700)
McChord Air Force Base

Weather History for KTCM - January, 2014

Change the Weather History Date:

Thursday, January 30, 2014

  Actual Average Record
Temperature  
Mean Temperature 42 °F -  
Max Temperature 46 °F 46 °F 63 °F (1992)
Min Temperature 39 °F 33 °F 9 °F (1980)
Degree Days  
Heating Degree Days 22    
Moisture  
Dew Point 41 °F    
Average Humidity 96    
Maximum Humidity 100    
Minimum Humidity 76    
Precipitation  
Precipitation 0.08 in - - ()
Sea Level Pressure  
Sea Level Pressure 29.88 in    
Wind  
Wind Speed 13 mph (SSW)    
Max Wind Speed 18 mph    
Max Gust Speed 29 mph    
Visibility 10 miles    
Events Rain    
Averages and records for this station are not official NWS values.
T = Trace of Precipitation, MM = Missing Value Source: NWS Daily Summary

Daily Weather History Graph

Daily Weather History Graph

Search for Another Location

Airport or City:

Trip Planner

Search our weather history database for the weather conditions in past years. The results will help you decide how hot, cold, wet, or windy it might be!

Date:

Astronomy

Jan. 30, 2014 Rise Set
Actual Time 7:37 AM PST 5:09 PM PST
Civil Twilight 7:04 AM PST 5:42 PM PST
Nautical Twilight 6:27 AM PST 6:19 PM PST
Astronomical Twilight 5:52 AM PST 6:55 PM PST
Moon 7:04 AM PST (1/30) 5:32 PM PST (1/30)
Length of Visible Light 10h 37m
Length of Day
9h 32m
Waning Crescent, 0% of the Moon is Illuminated
Jan 30
Waning Crescent
Jan 30
New
Feb 6
First Quarter
Feb 14
Full
Feb 22
Last Quarter

Hourly Weather History & Observations

Time (PST) Temp. Windchill Dew Point Humidity Pressure Visibility Wind Dir Wind Speed Gust Speed Precip Events Conditions
12:33 AM 42.8 °F 36.2 °F 42.8 °F 100% 29.84 in 10.0 mi SSW 12.7 mph - N/A   Overcast
12:58 AM 42.8 °F 35.4 °F 42.8 °F 100% 29.87 in 10.0 mi SSW 15.0 mph 19.6 mph N/A   Overcast
1:03 AM 42.8 °F 35.4 °F 42.8 °F 100% 29.85 in 10.0 mi SSW 15.0 mph 19.6 mph N/A   Overcast
1:08 AM 42.8 °F 35.4 °F 42.8 °F 100% 29.85 in 10.0 mi SSW 15.0 mph 19.6 mph N/A   Overcast
1:18 AM 42.8 °F 36.6 °F 42.8 °F 100% 29.85 in 10.0 mi South 11.5 mph 19.6 mph N/A   Overcast
1:23 AM 42.8 °F 37.5 °F 42.8 °F 100% 29.85 in 10.0 mi SSW 9.2 mph - N/A   Overcast
1:33 AM 42.8 °F 35.1 °F 42.8 °F 100% 29.85 in 10.0 mi South 16.1 mph 24.2 mph N/A   Overcast
1:35 AM 42.8 °F 35.4 °F 42.8 °F 100% 29.85 in 10.0 mi South 15.0 mph 24.2 mph N/A Rain Light Rain
1:44 AM 42.8 °F 35.8 °F 42.8 °F 100% 29.85 in 10.0 mi SSW 13.8 mph 19.6 mph N/A   Overcast
1:58 AM 42.8 °F 35.8 °F 42.8 °F 100% 29.87 in 10.0 mi SSW 13.8 mph 20.7 mph 0.00 in   Overcast
2:58 AM 42.6 °F 36.3 °F 42.3 °F 99% 29.87 in 10.0 mi SSW 11.5 mph 20.7 mph N/A   Overcast
3:28 AM 42.8 °F 35.4 °F 41.0 °F 93% 29.86 in 10.0 mi South 15.0 mph 24.2 mph N/A   Overcast
3:33 AM 42.8 °F 36.2 °F 41.0 °F 93% 29.86 in 10.0 mi SSW 12.7 mph 24.2 mph N/A   Overcast
3:38 AM 42.8 °F 36.6 °F 41.0 °F 93% 29.86 in 10.0 mi SSW 11.5 mph 24.2 mph N/A   Overcast
3:48 AM 42.8 °F 35.4 °F 42.8 °F 100% 29.86 in 10.0 mi SSW 15.0 mph 20.7 mph N/A   Overcast
3:53 AM 42.8 °F 35.4 °F 42.8 °F 100% 29.86 in 10.0 mi SSW 15.0 mph 20.7 mph N/A   Overcast
3:54 AM 42.8 °F 35.1 °F 42.8 °F 100% 29.86 in 10.0 mi SSW 16.1 mph 20.7 mph N/A   Overcast
3:58 AM 42.8 °F 35.1 °F 42.8 °F 100% 29.88 in 10.0 mi SSW 16.1 mph 20.7 mph 0.00 in   Overcast
4:07 AM 42.8 °F 35.4 °F 42.8 °F 100% 29.86 in 10.0 mi South 15.0 mph - N/A   Overcast
4:12 AM 42.8 °F 36.2 °F 41.0 °F 93% 29.86 in 10.0 mi South 12.7 mph 21.9 mph N/A   Overcast
4:27 AM 41.0 °F 33.9 °F 41.0 °F 100% 29.86 in 10.0 mi South 12.7 mph 20.7 mph N/A   Scattered Clouds
4:52 AM 41.0 °F 33.1 °F 41.0 °F 100% 29.86 in 10.0 mi SSW 15.0 mph 18.4 mph N/A   Mostly Cloudy
4:58 AM 41.7 °F 34.1 °F 41.5 °F 99% 29.88 in 10.0 mi South 15.0 mph 18.4 mph 0.00 in   Overcast
5:58 AM 41.7 °F 36.1 °F 41.5 °F 99% 29.88 in 10.0 mi South 9.2 mph 19.6 mph N/A   Overcast
6:08 AM 41.0 °F 33.9 °F 41.0 °F 100% 29.85 in 10.0 mi SSW 12.7 mph 18.4 mph N/A   Overcast
6:48 AM 41.0 °F 35.2 °F 41.0 °F 100% 29.85 in 10.0 mi SSW 9.2 mph 17.3 mph N/A   Mostly Cloudy
6:53 AM 41.0 °F 33.5 °F 41.0 °F 100% 29.85 in 10.0 mi South 13.8 mph 20.7 mph N/A   Scattered Clouds
6:58 AM 40.6 °F 33.0 °F 40.5 °F 99% 29.87 in 10.0 mi SSW 13.8 mph 20.7 mph N/A   Scattered Clouds
7:58 AM 41.0 °F 32.5 °F 40.8 °F 99% 29.88 in 10.0 mi SSW 17.3 mph 23.0 mph N/A   Scattered Clouds
8:58 AM 41.7 °F 33.7 °F 41.4 °F 99% 29.90 in 10.0 mi SSW 16.1 mph 21.9 mph N/A   Clear
9:58 AM 44.1 °F 38.6 °F 41.0 °F 89% 29.93 in 10.0 mi SSW 10.4 mph 20.7 mph N/A   Scattered Clouds
10:58 AM 45.5 °F 39.6 °F 40.3 °F 82% 29.93 in 10.0 mi SSW 12.7 mph 19.6 mph N/A   Scattered Clouds
11:58 AM 46.4 °F 40.1 °F 39.4 °F 77% 29.91 in 10.0 mi SSW 15.0 mph 25.3 mph N/A   Mostly Cloudy
12:13 PM 46.4 °F 40.7 °F 39.2 °F 76% 29.89 in 10.0 mi SSW 12.7 mph 21.9 mph N/A   Mostly Cloudy
12:18 PM 46.4 °F 39.2 °F 39.2 °F 76% 29.89 in 10.0 mi SSW 18.4 mph 21.9 mph N/A   Mostly Cloudy
12:28 PM 46.4 °F 39.8 °F 39.2 °F 76% 29.88 in 10.0 mi SW 16.1 mph 28.8 mph N/A   Mostly Cloudy
12:44 PM 46.4 °F 40.4 °F 41.0 °F 81% 29.89 in 10.0 mi SSW 13.8 mph 20.7 mph N/A Rain Light Rain
12:49 PM 46.4 °F 40.4 °F 41.0 °F 81% 29.89 in 10.0 mi SSW 13.8 mph 20.7 mph N/A Rain Light Rain
12:58 PM 45.9 °F 41.7 °F 41.2 °F 84% 29.90 in 10.0 mi SSW 8.1 mph 17.3 mph 0.00 in Rain Light Rain
1:06 PM 46.4 °F 42.4 °F 41.0 °F 81% 29.88 in 10.0 mi SSW 8.1 mph - N/A   Overcast
1:10 PM 46.4 °F 42.4 °F 42.8 °F 87% 29.88 in 10.0 mi SSW 8.1 mph - N/A Rain Light Rain
1:45 PM 42.8 °F 36.6 °F 42.8 °F 100% 29.88 in 2.5 mi SSW 11.5 mph 23.0 mph N/A   Overcast
1:50 PM 42.8 °F 37.5 °F 42.8 °F 100% 29.87 in 4.0 mi SW 9.2 mph 23.0 mph N/A   Overcast
1:58 PM 42.8 °F 37.5 °F 42.4 °F 99% 29.89 in 9.0 mi SSW 9.2 mph - 0.08 in Rain Light Rain
2:07 PM 42.8 °F 36.6 °F 42.8 °F 100% 29.87 in 10.0 mi SSW 11.5 mph - N/A   Mostly Cloudy
2:37 PM 42.8 °F 36.6 °F 42.8 °F 100% 29.87 in 10.0 mi SSW 11.5 mph 19.6 mph N/A   Overcast
2:58 PM 43.2 °F 36.2 °F 42.8 °F 99% 29.89 in 10.0 mi South 13.8 mph 17.3 mph 0.00 in   Mostly Cloudy
3:58 PM 41.9 °F 35.4 °F 41.5 °F 99% 29.90 in 10.0 mi SSW 11.5 mph - N/A   Mostly Cloudy
4:08 PM 41.0 °F 34.7 °F 41.0 °F 100% 29.88 in 10.0 mi South 10.4 mph - N/A   Mostly Cloudy
4:23 PM 41.0 °F 33.5 °F 41.0 °F 100% 29.87 in 10.0 mi SSW 13.8 mph - N/A   Mostly Cloudy
4:33 PM 41.0 °F 33.9 °F 41.0 °F 100% 29.87 in 10.0 mi SSW 12.7 mph - N/A   Overcast
4:58 PM 41.2 °F 34.1 °F 40.8 °F 99% 29.90 in 10.0 mi SSW 12.7 mph 20.7 mph N/A   Overcast
5:58 PM 39.9 °F 34.5 °F 39.7 °F 99% 29.91 in 10.0 mi South 8.1 mph - N/A   Overcast
6:53 PM 39.2 °F 32.0 °F 39.2 °F 100% 29.89 in 10.0 mi SSW 11.5 mph 17.3 mph N/A   Overcast
6:58 PM 39.9 °F 33.9 °F 39.7 °F 99% 29.91 in 10.0 mi South 9.2 mph 17.3 mph N/A   Overcast
7:43 PM 41.0 °F 34.7 °F 41.0 °F 100% 29.90 in 10.0 mi South 10.4 mph 19.6 mph N/A   Overcast
7:58 PM 40.5 °F 35.8 °F 40.1 °F 99% 29.92 in 10.0 mi South 6.9 mph - N/A   Overcast
8:08 PM 41.0 °F 36.4 °F 39.2 °F 93% 29.90 in 10.0 mi South 6.9 mph - N/A   Overcast
8:18 PM 39.2 °F 34.2 °F 39.2 °F 100% 29.90 in 10.0 mi South 6.9 mph - N/A   Overcast
8:28 PM 41.0 °F 35.8 °F 39.2 °F 93% 29.90 in 10.0 mi South 8.1 mph - N/A   Overcast
8:58 PM 40.6 °F 33.8 °F 40.5 °F 99% 29.93 in 10.0 mi South 11.5 mph 18.4 mph N/A   Overcast
9:58 PM 40.3 °F 34.9 °F 39.9 °F 99% 29.94 in 10.0 mi South 8.1 mph - N/A   Overcast
10:58 PM 40.5 °F 35.1 °F 39.9 °F 98% 29.94 in 10.0 mi South 8.1 mph - N/A   Overcast
11:23 PM 41.0 °F 35.8 °F 39.2 °F 93% 29.93 in 10.0 mi South 8.1 mph - N/A   Overcast
11:28 PM 41.0 °F 38.0 °F 39.2 °F 93% 29.93 in 10.0 mi South 4.6 mph - N/A   Overcast
11:58 PM 40.5 °F - 39.9 °F 98% 29.95 in 10.0 mi South 2.3 mph - N/A   Overcast